Weather History for KAQP - July, 2014

Change the Weather History Date:

Wednesday, July 2, 2014

  Actual Average Record
Temperature  
Mean Temperature 64 °F -  
Max Temperature 73 °F 78 °F 96 °F (2012)
Min Temperature 55 °F 58 °F 51 °F (2015)
Degree Days  
Heating Degree Days 1    
Growing Degree Days 14 (Base 50)    
Moisture  
Dew Point 48 °F    
Average Humidity 57    
Maximum Humidity 82    
Minimum Humidity 31    
Precipitation  
Precipitation 0.00 in - - ()
Sea Level Pressure  
Sea Level Pressure 30.08 in    
Wind  
Wind Speed 12 mph (NNW)    
Max Wind Speed 17 mph    
Max Gust Speed 25 mph    
Visibility 10 miles    
Events      
Averages and records for this station are not official NWS values.
T = Trace of Precipitation, MM = Missing Value Source: NWS Daily Summary

Daily Weather History Graph

Daily Weather History Graph

Search for Another Location

Airport or City:

Trip Planner

Search our weather history database for the weather conditions in past years. The results will help you decide how hot, cold, wet, or windy it might be!

Date:

Astronomy

Jul. 02, 2014 Rise Set
Actual Time 5:40 AM CDT 9:15 PM CDT
Civil Twilight 5:03 AM CDT 9:52 PM CDT
Nautical Twilight 4:13 AM CDT 10:41 PM CDT
Astronomical Twilight 3:08 AM CDT 11:46 PM CDT
Moon 11:00 AM CDT (7/2) 11:52 PM CDT (7/2)
Length of Visible Light 16h 48m
Length of Day
15h 34m
Waxing Crescent, 24% of the Moon is Illuminated
Jul 2
Waxing Crescent
Jul 5
First Quarter
Jul 12
Full
Jul 18
Last Quarter
Jul 26
New

Hourly Weather History & Observations

Time (CDT) Temp. Dew Point Humidity Pressure Visibility Wind Dir Wind Speed Gust Speed Precip Events Conditions
12:15 AM 55.4 °F 50.0 °F 82% 29.96 in 10.0 mi NNW 15.0 mph 21.9 mph N/A   Overcast
12:34 AM 55.4 °F 50.0 °F 82% 29.96 in 10.0 mi NNW 17.3 mph 21.9 mph N/A   Overcast
12:55 AM 55.4 °F 50.0 °F 82% 29.96 in 10.0 mi NNW 16.1 mph 21.9 mph N/A   Overcast
1:14 AM 55.4 °F 50.0 °F 82% 29.97 in 10.0 mi NNW 16.1 mph 21.9 mph N/A   Overcast
1:34 AM 57.2 °F 50.0 °F 77% 29.97 in 10.0 mi NNW 15.0 mph 19.6 mph N/A   Overcast
1:55 AM 57.2 °F 50.0 °F 77% 29.98 in 10.0 mi NNW 16.1 mph 21.9 mph N/A   Overcast
2:15 AM 57.2 °F 50.0 °F 77% 29.97 in 10.0 mi North 17.3 mph 24.2 mph N/A   Mostly Cloudy
2:34 AM 55.4 °F 50.0 °F 82% 29.98 in 10.0 mi NNW 13.8 mph - N/A   Scattered Clouds
2:55 AM 55.4 °F 50.0 °F 82% 29.99 in 10.0 mi NNW 15.0 mph 20.7 mph N/A   Mostly Cloudy
3:14 AM 57.2 °F 50.0 °F 77% 29.99 in 10.0 mi NNW 13.8 mph 19.6 mph N/A   Overcast
3:34 AM 57.2 °F 50.0 °F 77% 30.01 in 10.0 mi NNW 13.8 mph 20.7 mph N/A   Overcast
3:54 AM 57.2 °F 50.0 °F 77% 30.02 in 10.0 mi NNW 9.2 mph - N/A   Overcast
4:14 AM 57.2 °F 50.0 °F 77% 30.02 in 10.0 mi NNW 10.4 mph - N/A   Overcast
4:35 AM 57.2 °F 50.0 °F 77% 30.02 in 10.0 mi NNW 10.4 mph - N/A   Overcast
4:54 AM 57.2 °F 50.0 °F 77% 30.02 in 10.0 mi NNW 9.2 mph - N/A   Overcast
5:15 AM 57.2 °F 48.2 °F 72% 30.02 in 10.0 mi NNW 9.2 mph - N/A   Overcast
5:34 AM 57.2 °F 48.2 °F 72% 30.02 in 10.0 mi NW 12.7 mph 16.1 mph N/A   Overcast
5:55 AM 57.2 °F 48.2 °F 72% 30.03 in 10.0 mi NNW 10.4 mph - N/A   Overcast
6:15 AM 57.2 °F 48.2 °F 72% 30.05 in 10.0 mi NW 8.1 mph - N/A   Overcast
6:34 AM 57.2 °F 48.2 °F 72% 30.06 in 10.0 mi NW 10.4 mph - N/A   Overcast
6:54 AM 57.2 °F 48.2 °F 72% 30.07 in 10.0 mi NNW 11.5 mph - N/A   Overcast
7:14 AM 57.2 °F 48.2 °F 72% 30.07 in 10.0 mi NNW 10.4 mph - N/A   Overcast
7:34 AM 59.0 °F 48.2 °F 67% 30.08 in 10.0 mi NNW 10.4 mph - N/A   Overcast
7:54 AM 60.8 °F 48.2 °F 63% 30.09 in 10.0 mi NNW 11.5 mph - N/A   Scattered Clouds
8:14 AM 60.8 °F 48.2 °F 63% 30.09 in 10.0 mi NW 13.8 mph - N/A   Clear
8:35 AM 62.6 °F 48.2 °F 59% 30.10 in 10.0 mi NNW 13.8 mph - N/A   Clear
8:54 AM 62.6 °F 48.2 °F 59% 30.10 in 10.0 mi NNW 12.7 mph - N/A   Clear
9:14 AM 62.6 °F 48.2 °F 59% 30.10 in 10.0 mi NNW 13.8 mph - N/A   Clear
9:34 AM 62.6 °F 48.2 °F 59% 30.11 in 10.0 mi NNW 12.7 mph - N/A   Clear
9:54 AM 64.4 °F 50.0 °F 59% 30.11 in 10.0 mi NW 11.5 mph 16.1 mph N/A   Clear
10:15 AM 64.4 °F 48.2 °F 56% 30.11 in 10.0 mi NW 11.5 mph - N/A   Clear
10:35 AM 66.2 °F 50.0 °F 56% 30.12 in 10.0 mi NW 11.5 mph 17.3 mph N/A   Clear
10:54 AM 66.2 °F 48.2 °F 52% 30.12 in 10.0 mi NNW 11.5 mph - N/A   Clear
11:14 AM 66.2 °F 48.2 °F 52% 30.12 in 10.0 mi NW 11.5 mph - N/A   Clear
11:35 AM 68.0 °F 48.2 °F 49% 30.12 in 10.0 mi NNW 11.5 mph 18.4 mph N/A   Clear
11:54 AM 69.8 °F 46.4 °F 43% 30.12 in 10.0 mi NW 11.5 mph - N/A   Clear
12:14 PM 69.8 °F 46.4 °F 43% 30.12 in 3.0 mi NW 13.8 mph 18.4 mph N/A   Haze
12:35 PM 69.8 °F 46.4 °F 43% 30.12 in 10.0 mi NW 15.0 mph 19.6 mph N/A   Clear
12:54 PM 71.6 °F 44.6 °F 38% 30.12 in 10.0 mi NW 15.0 mph 20.7 mph N/A   Clear
1:14 PM 71.6 °F 42.8 °F 35% 30.11 in 10.0 mi North 12.7 mph 25.3 mph N/A   Clear
1:34 PM 71.6 °F 42.8 °F 35% 30.12 in 10.0 mi NNW 15.0 mph 20.7 mph N/A   Clear
1:54 PM 71.6 °F 42.8 °F 35% 30.12 in 10.0 mi NNW 12.7 mph 23.0 mph N/A   Clear
2:14 PM 71.6 °F 42.8 °F 35% 30.11 in 10.0 mi NNW 11.5 mph 19.6 mph N/A   Clear
2:34 PM 73.4 °F 42.8 °F 33% 30.11 in 10.0 mi NNW 12.7 mph 20.7 mph N/A   Clear
2:54 PM 73.4 °F 42.8 °F 33% 30.11 in 10.0 mi NNW 17.3 mph 20.7 mph N/A   Clear
3:14 PM 73.4 °F 41.0 °F 31% 30.11 in 10.0 mi NNW 16.1 mph - N/A   Clear
3:34 PM 73.4 °F 44.6 °F 36% 30.11 in 10.0 mi NW 17.3 mph 24.2 mph N/A   Clear
4:15 PM 73.4 °F 42.8 °F 33% 30.11 in 10.0 mi North 15.0 mph - N/A   Clear
4:34 PM 73.4 °F 42.8 °F 33% 30.10 in 10.0 mi NNW 10.4 mph 19.6 mph N/A   Clear
4:54 PM 73.4 °F 42.8 °F 33% 30.10 in 10.0 mi North 13.8 mph - N/A   Clear
5:15 PM 73.4 °F 42.8 °F 33% 30.10 in 10.0 mi North 10.4 mph 17.3 mph N/A   Clear
5:36 PM 73.4 °F 44.6 °F 36% 30.10 in 10.0 mi NNW 11.5 mph 16.1 mph N/A   Clear
5:54 PM 73.4 °F 42.8 °F 33% 30.10 in 10.0 mi North 12.7 mph - N/A   Scattered Clouds
6:14 PM 73.4 °F 42.8 °F 33% 30.10 in 10.0 mi NNW 11.5 mph 17.3 mph N/A   Scattered Clouds
6:34 PM 73.4 °F 44.6 °F 36% 30.10 in 10.0 mi NW 10.4 mph 16.1 mph N/A   Scattered Clouds
6:54 PM 73.4 °F 44.6 °F 36% 30.10 in 10.0 mi NNW 11.5 mph - N/A   Scattered Clouds
7:35 PM 71.6 °F 46.4 °F 41% 30.09 in 10.0 mi NNW 6.9 mph - N/A   Scattered Clouds
7:54 PM 69.8 °F 46.4 °F 43% 30.10 in 10.0 mi North 6.9 mph - N/A   Mostly Cloudy
8:14 PM 69.8 °F 48.2 °F 46% 30.10 in 10.0 mi North 4.6 mph - N/A   Mostly Cloudy
8:34 PM 69.8 °F 48.2 °F 46% 30.11 in 10.0 mi NNE 4.6 mph - N/A   Overcast
8:54 PM 68.0 °F 50.0 °F 52% 30.11 in 10.0 mi North 3.5 mph - N/A   Overcast
9:14 PM 66.2 °F 51.8 °F 60% 30.11 in 10.0 mi North 3.5 mph - N/A   Overcast
9:34 PM 66.2 °F 51.8 °F 60% 30.11 in 10.0 mi North 3.5 mph - N/A   Overcast
9:55 PM 66.2 °F 50.0 °F 56% 30.12 in 10.0 mi Calm Calm - N/A   Overcast
10:14 PM 66.2 °F 51.8 °F 60% 30.13 in 10.0 mi North 3.5 mph - N/A   Overcast
10:35 PM 64.4 °F 51.8 °F 64% 30.13 in 10.0 mi Calm Calm - N/A   Overcast
10:55 PM 64.4 °F 53.6 °F 68% 30.13 in 10.0 mi Calm Calm - N/A   Overcast
11:15 PM 62.6 °F 55.4 °F 77% 30.13 in 10.0 mi Calm Calm - N/A   Overcast
11:35 PM 62.6 °F 55.4 °F 77% 30.13 in 10.0 mi Calm Calm - N/A   Overcast
11:54 PM 62.6 °F 55.4 °F 77% 30.13 in 10.0 mi Calm Calm - N/A   Overcast